カタログに戻る

STARLINK-31334

運用中通信VLEO
NORAD 59157·PAYLOAD·🇺🇸 United States

打ち上げ Mar 4, 2024 から Cape Canaveral Space Force Station

Loading…

次のパス (今後24時間)

TLE

最新Source: CelesTrak SupGP

元期: Sep 14, 2026, 21:29 UTC

1 59157C 24044F   26257.89562500 -.00028812  00000+0 -10438-2 0  2575
2 59157  42.9992 122.0491 0001350 270.3532 349.2200 15.27587163    10

AllMySatでSTARLINK-31334をリアルタイム追跡

Download on the App Store